Time,TemperatureF,DewpointF,PressureIn,WindDirection,WindDirectionDegrees,WindSpeedMPH,WindSpeedGustMPH,Humidity,HourlyPrecipIn,Conditions,Clouds,dailyrainin,SolarRadiationWatts/m^2,SoftwareType,DateUTC
2013-04-11 00:02:00,56.0,24.0,-100.00,West,268,5.0,10.0,29,0.00,,,0.00,0.000000,,2013-04-11 07:02:00,
2013-04-11 00:12:00,56.0,24.0,-100.00,West,268,5.0,10.0,29,0.00,,,0.00,0.000000,,2013-04-11 07:12:00,
2013-04-11 00:21:00,56.0,24.0,-100.00,West,268,5.0,10.0,29,0.00,,,0.00,0.000000,,2013-04-11 07:21:00,
2013-04-11 00:31:00,56.0,24.0,-100.00,West,268,5.0,10.0,29,0.00,,,0.00,0.000000,,2013-04-11 07:31:00,
2013-04-11 00:52:00,51.0,24.0,-100.00,West,269,2.0,7.0,35,0.00,,,0.00,0.000000,,2013-04-11 07:52:00,
2013-04-11 01:02:00,51.0,24.0,-100.00,West,269,2.0,7.0,35,0.00,,,0.00,0.000000,,2013-04-11 08:02:00,
2013-04-11 01:12:00,51.0,24.0,-100.00,West,269,2.0,7.0,35,0.00,,,0.00,0.000000,,2013-04-11 08:12:00,
2013-04-11 01:22:00,51.0,24.0,-100.00,West,269,2.0,7.0,35,0.00,,,0.00,0.000000,,2013-04-11 08:22:00,
2013-04-11 01:32:00,51.0,24.0,-100.00,West,269,2.0,7.0,35,0.00,,,0.00,0.000000,,2013-04-11 08:32:00,
2013-04-11 01:52:00,55.0,22.0,-100.00,WSW,247,2.0,9.0,27,0.00,,,0.00,0.000000,,2013-04-11 08:52:00,
2013-04-11 02:02:00,55.0,22.0,-100.00,WSW,247,2.0,9.0,27,0.00,,,0.00,0.000000,,2013-04-11 09:02:00,
2013-04-11 02:12:00,55.0,22.0,-100.00,WSW,247,2.0,9.0,27,0.00,,,0.00,0.000000,,2013-04-11 09:12:00,
2013-04-11 02:22:00,55.0,22.0,-100.00,WSW,247,2.0,9.0,27,0.00,,,0.00,0.000000,,2013-04-11 09:22:00,
2013-04-11 02:32:00,55.0,22.0,-100.00,WSW,247,2.0,9.0,27,0.00,,,0.00,0.000000,,2013-04-11 09:32:00,
2013-04-11 02:53:00,51.0,18.0,-100.00,WSW,241,1.0,12.0,27,0.00,,,0.00,0.000000,,2013-04-11 09:53:00,
2013-04-11 03:02:00,51.0,18.0,-100.00,WSW,241,1.0,12.0,27,0.00,,,0.00,0.000000,,2013-04-11 10:02:00,
2013-04-11 03:12:00,51.0,18.0,-100.00,WSW,241,1.0,12.0,27,0.00,,,0.00,0.000000,,2013-04-11 10:12:00,
2013-04-11 03:22:00,51.0,18.0,-100.00,WSW,241,1.0,12.0,27,0.00,,,0.00,0.000000,,2013-04-11 10:22:00,
2013-04-11 03:32:00,51.0,18.0,-100.00,WSW,241,1.0,12.0,27,0.00,,,0.00,0.000000,,2013-04-11 10:32:00,
2013-04-11 03:52:00,50.0,24.0,-100.00,WSW,257,2.0,6.0,36,0.00,,,0.00,0.000000,,2013-04-11 10:52:00,
2013-04-11 04:02:00,50.0,24.0,-100.00,WSW,257,2.0,6.0,36,0.00,,,0.00,0.000000,,2013-04-11 11:02:00,
2013-04-11 04:12:00,50.0,24.0,-100.00,WSW,257,2.0,6.0,36,0.00,,,0.00,0.000000,,2013-04-11 11:12:00,
2013-04-11 04:22:00,50.0,24.0,-100.00,WSW,257,2.0,6.0,36,0.00,,,0.00,0.000000,,2013-04-11 11:22:00,
2013-04-11 04:31:00,50.0,24.0,-100.00,WSW,257,2.0,6.0,36,0.00,,,0.00,0.000000,,2013-04-11 11:31:00,
2013-04-11 04:52:00,54.0,20.0,-100.00,ESE,102,4.0,10.0,26,0.00,,,-99.99,0.000000,,2013-04-11 11:52:00,
2013-04-11 05:02:00,54.0,20.0,-100.00,ESE,102,4.0,10.0,26,0.00,,,-99.99,0.000000,,2013-04-11 12:02:00,
2013-04-11 05:12:00,54.0,20.0,-100.00,ESE,102,4.0,10.0,26,0.00,,,-99.99,0.000000,,2013-04-11 12:12:00,
2013-04-11 05:22:00,54.0,20.0,-100.00,ESE,102,4.0,10.0,26,0.00,,,-99.99,0.000000,,2013-04-11 12:22:00,
2013-04-11 05:32:00,54.0,20.0,-100.00,ESE,102,4.0,10.0,26,0.00,,,-99.99,0.000000,,2013-04-11 12:32:00,
2013-04-11 05:52:00,54.0,21.0,-100.00,WSW,255,5.0,8.0,27,0.00,,,-99.99,0.000000,,2013-04-11 12:52:00,
2013-04-11 06:02:00,54.0,21.0,-100.00,WSW,255,5.0,8.0,27,0.00,,,-99.99,0.000000,,2013-04-11 13:02:00,
2013-04-11 06:12:00,54.0,21.0,-100.00,WSW,255,5.0,8.0,27,0.00,,,-99.99,0.000000,,2013-04-11 13:12:00,
2013-04-11 06:22:00,54.0,21.0,-100.00,WSW,255,5.0,8.0,27,0.00,,,-99.99,0.000000,,2013-04-11 13:22:00,
2013-04-11 06:32:00,54.0,21.0,-100.00,WSW,255,5.0,8.0,27,0.00,,,-99.99,0.000000,,2013-04-11 13:32:00,
2013-04-11 06:54:00,50.0,23.0,-100.00,WNW,285,0.0,7.0,35,0.00,,,0.00,1.000000,,2013-04-11 13:54:00,
2013-04-11 07:02:00,50.0,23.0,-100.00,WNW,285,0.0,7.0,35,0.00,,,0.00,1.000000,,2013-04-11 14:02:00,
2013-04-11 07:12:00,50.0,23.0,-100.00,WNW,285,0.0,7.0,35,0.00,,,0.00,1.000000,,2013-04-11 14:12:00,
2013-04-11 07:22:00,50.0,23.0,-100.00,WNW,285,0.0,7.0,35,0.00,,,0.00,1.000000,,2013-04-11 14:22:00,
2013-04-11 07:32:00,50.0,23.0,-100.00,WNW,285,0.0,7.0,35,0.00,,,0.00,1.000000,,2013-04-11 14:32:00,
2013-04-11 07:52:00,51.0,21.0,-100.00,WSW,258,0.0,11.0,31,0.00,,,0.00,31.000000,,2013-04-11 14:52:00,
2013-04-11 08:02:00,51.0,21.0,-100.00,WSW,258,0.0,11.0,31,0.00,,,0.00,31.000000,,2013-04-11 15:02:00,
2013-04-11 08:12:00,51.0,21.0,-100.00,WSW,258,0.0,11.0,31,0.00,,,0.00,31.000000,,2013-04-11 15:12:00,
2013-04-11 08:22:00,51.0,21.0,-100.00,WSW,258,0.0,11.0,31,0.00,,,0.00,31.000000,,2013-04-11 15:22:00,
2013-04-11 08:32:00,51.0,21.0,-100.00,WSW,258,0.0,11.0,31,0.00,,,0.00,31.000000,,2013-04-11 15:32:00,
2013-04-11 09:53:00,72.0,20.0,-100.00,NNW,331,0.0,4.0,14,-99.99,,,0.00,619.000000,,2013-04-11 16:53:00,
2013-04-11 10:02:00,72.0,20.0,-100.00,NNW,331,0.0,4.0,14,-99.99,,,0.00,619.000000,,2013-04-11 17:02:00,
2013-04-11 10:12:00,72.0,20.0,-100.00,NNW,331,0.0,4.0,14,-99.99,,,0.00,619.000000,,2013-04-11 17:12:00,
2013-04-11 10:53:00,74.0,23.0,-100.00,NNW,348,3.0,6.0,15,0.00,,,0.00,883.000000,,2013-04-11 17:53:00,
2013-04-11 11:02:00,74.0,23.0,-100.00,NNW,348,3.0,6.0,15,0.00,,,0.00,883.000000,,2013-04-11 18:02:00,
2013-04-11 11:13:00,74.0,23.0,-100.00,NNW,348,3.0,6.0,15,0.00,,,0.00,883.000000,,2013-04-11 18:13:00,
2013-04-11 11:22:00,74.0,23.0,-100.00,NNW,348,3.0,6.0,15,0.00,,,0.00,883.000000,,2013-04-11 18:22:00,
2013-04-11 11:53:00,73.0,26.0,-100.00,North,6,4.0,12.0,17,0.00,,,0.00,1044.000000,,2013-04-11 18:53:00,
2013-04-11 12:03:00,73.0,26.0,-100.00,North,6,4.0,12.0,17,0.00,,,0.00,1044.000000,,2013-04-11 19:03:00,
2013-04-11 12:13:00,73.0,26.0,-100.00,North,6,4.0,12.0,17,0.00,,,0.00,1044.000000,,2013-04-11 19:13:00,
2013-04-11 12:22:00,73.0,26.0,-100.00,North,6,4.0,12.0,17,0.00,,,0.00,1044.000000,,2013-04-11 19:22:00,
2013-04-11 12:32:00,73.0,26.0,-100.00,North,6,4.0,12.0,17,0.00,,,0.00,1044.000000,,2013-04-11 19:32:00,
2013-04-11 12:53:00,76.0,28.0,-100.00,South,184,3.0,10.0,17,0.00,,,0.00,1143.000000,,2013-04-11 19:53:00,
2013-04-11 13:02:00,76.0,28.0,-100.00,South,184,3.0,10.0,17,0.00,,,0.00,1143.000000,,2013-04-11 20:02:00,
2013-04-11 13:13:00,76.0,28.0,-100.00,South,184,3.0,10.0,17,0.00,,,0.00,1143.000000,,2013-04-11 20:13:00,
2013-04-11 13:21:00,76.0,28.0,-100.00,South,184,3.0,10.0,17,0.00,,,0.00,1143.000000,,2013-04-11 20:21:00,
2013-04-11 13:32:00,76.0,28.0,-100.00,South,184,3.0,10.0,17,0.00,,,0.00,1143.000000,,2013-04-11 20:32:00,
2013-04-11 13:52:00,78.0,28.0,-100.00,North,2,1.0,8.0,16,0.00,,,0.00,1164.000000,,2013-04-11 20:52:00,
2013-04-11 14:02:00,78.0,28.0,-100.00,North,2,1.0,8.0,16,0.00,,,0.00,1164.000000,,2013-04-11 21:02:00,
2013-04-11 14:12:00,78.0,28.0,-100.00,North,2,1.0,8.0,16,0.00,,,0.00,1164.000000,,2013-04-11 21:12:00,
2013-04-11 14:22:00,78.0,28.0,-100.00,North,2,1.0,8.0,16,0.00,,,0.00,1164.000000,,2013-04-11 21:22:00,
2013-04-11 14:32:00,78.0,28.0,-100.00,North,2,1.0,8.0,16,0.00,,,0.00,1164.000000,,2013-04-11 21:32:00,
2013-04-11 14:54:00,78.0,28.0,-100.00,North,358,1.0,8.0,16,0.00,,,0.00,1109.000000,,2013-04-11 21:54:00,
2013-04-11 15:03:00,78.0,28.0,-100.00,North,358,1.0,8.0,16,0.00,,,0.00,1109.000000,,2013-04-11 22:03:00,
2013-04-11 15:13:00,78.0,28.0,-100.00,North,358,1.0,8.0,16,0.00,,,0.00,1109.000000,,2013-04-11 22:13:00,
2013-04-11 15:22:00,78.0,28.0,-100.00,North,358,1.0,8.0,16,0.00,,,0.00,1109.000000,,2013-04-11 22:22:00,
2013-04-11 15:32:00,78.0,28.0,-100.00,North,358,1.0,8.0,16,0.00,,,0.00,1109.000000,,2013-04-11 22:32:00,
2013-04-11 15:53:00,80.0,28.0,-100.00,East,91,2.0,13.0,15,0.00,,,0.00,970.000000,,2013-04-11 22:53:00,
2013-04-11 16:03:00,80.0,28.0,-100.00,East,91,2.0,13.0,15,0.00,,,0.00,970.000000,,2013-04-11 23:03:00,
2013-04-11 16:12:00,80.0,28.0,-100.00,East,91,2.0,13.0,15,0.00,,,0.00,970.000000,,2013-04-11 23:12:00,
2013-04-11 16:22:00,80.0,28.0,-100.00,East,91,2.0,13.0,15,0.00,,,0.00,970.000000,,2013-04-11 23:22:00,
2013-04-11 16:32:00,80.0,28.0,-100.00,East,91,2.0,13.0,15,0.00,,,0.00,970.000000,,2013-04-11 23:32:00,
2013-04-11 16:53:00,78.0,27.0,-100.00,ESE,121,5.0,12.0,15,0.00,,,0.00,749.000000,,2013-04-11 23:53:00,
2013-04-11 17:02:00,78.0,27.0,-100.00,ESE,121,5.0,12.0,15,0.00,,,0.00,749.000000,,2013-04-12 00:02:00,
2013-04-11 17:12:00,78.0,27.0,-100.00,ESE,121,5.0,12.0,15,0.00,,,0.00,749.000000,,2013-04-12 00:12:00,
2013-04-11 17:22:00,78.0,27.0,-100.00,ESE,121,5.0,12.0,15,0.00,,,0.00,749.000000,,2013-04-12 00:22:00,
2013-04-11 17:32:00,78.0,27.0,-100.00,ESE,121,5.0,12.0,15,0.00,,,0.00,749.000000,,2013-04-12 00:32:00,
2013-04-11 17:53:00,73.0,35.0,-100.00,East,91,6.0,13.0,25,0.00,,,0.00,481.000000,,2013-04-12 00:53:00,
2013-04-11 18:02:00,73.0,35.0,-100.00,East,91,6.0,13.0,25,0.00,,,0.00,481.000000,,2013-04-12 01:02:00,
2013-04-11 18:12:00,73.0,35.0,-100.00,East,91,6.0,13.0,25,0.00,,,0.00,481.000000,,2013-04-12 01:12:00,
2013-04-11 18:22:00,73.0,35.0,-100.00,East,91,6.0,13.0,25,0.00,,,0.00,481.000000,,2013-04-12 01:22:00,
2013-04-11 18:32:00,73.0,35.0,-100.00,East,91,6.0,13.0,25,0.00,,,0.00,481.000000,,2013-04-12 01:32:00,
2013-04-11 19:02:00,69.0,42.0,-100.00,ESE,108,6.0,15.0,37,0.00,,,0.00,220.000000,,2013-04-12 02:02:00,
2013-04-11 19:12:00,69.0,42.0,-100.00,ESE,108,6.0,15.0,37,0.00,,,0.00,220.000000,,2013-04-12 02:12:00,
2013-04-11 19:22:00,69.0,42.0,-100.00,ESE,108,6.0,15.0,37,0.00,,,0.00,220.000000,,2013-04-12 02:22:00,
2013-04-11 19:32:00,69.0,42.0,-100.00,ESE,108,6.0,15.0,37,0.00,,,0.00,220.000000,,2013-04-12 02:32:00,
2013-04-11 19:52:00,61.0,43.0,-100.00,NE,48,0.0,8.0,51,0.00,,,0.00,33.000000,,2013-04-12 02:52:00,
2013-04-11 20:02:00,61.0,43.0,-100.00,NE,48,0.0,8.0,51,0.00,,,0.00,33.000000,,2013-04-12 03:02:00,
2013-04-11 20:12:00,61.0,43.0,-100.00,NE,48,0.0,8.0,51,0.00,,,0.00,33.000000,,2013-04-12 03:12:00,
2013-04-11 20:22:00,61.0,43.0,-100.00,NE,48,0.0,8.0,51,0.00,,,0.00,33.000000,,2013-04-12 03:22:00,
2013-04-11 20:32:00,61.0,43.0,-100.00,NE,48,0.0,8.0,51,0.00,,,0.00,33.000000,,2013-04-12 03:32:00,
2013-04-11 20:53:00,55.0,42.0,-100.00,NW,310,0.0,4.0,62,0.00,,,0.00,0.000000,,2013-04-12 03:53:00,
2013-04-11 21:03:00,55.0,42.0,-100.00,NW,310,0.0,4.0,62,0.00,,,0.00,0.000000,,2013-04-12 04:03:00,
2013-04-11 21:13:00,55.0,42.0,-100.00,NW,310,0.0,4.0,62,0.00,,,0.00,0.000000,,2013-04-12 04:13:00,
2013-04-11 21:22:00,55.0,42.0,-100.00,NW,310,0.0,4.0,62,0.00,,,0.00,0.000000,,2013-04-12 04:22:00,
2013-04-11 21:33:00,55.0,42.0,-100.00,NW,310,0.0,4.0,62,0.00,,,0.00,0.000000,,2013-04-12 04:33:00,
2013-04-11 21:53:00,54.0,45.0,-100.00,SSW,195,0.0,3.0,71,0.00,,,0.00,0.000000,,2013-04-12 04:53:00,
2013-04-11 22:03:00,54.0,45.0,-100.00,SSW,195,0.0,3.0,71,0.00,,,0.00,0.000000,,2013-04-12 05:03:00,
2013-04-11 22:12:00,54.0,45.0,-100.00,SSW,195,0.0,3.0,71,0.00,,,0.00,0.000000,,2013-04-12 05:12:00,
2013-04-11 22:22:00,54.0,45.0,-100.00,SSW,195,0.0,3.0,71,0.00,,,0.00,0.000000,,2013-04-12 05:22:00,
2013-04-11 22:32:00,54.0,45.0,-100.00,SSW,195,0.0,3.0,71,0.00,,,0.00,0.000000,,2013-04-12 05:32:00,
2013-04-11 22:52:00,53.0,44.0,-100.00,West,277,0.0,4.0,72,0.00,,,0.00,0.000000,,2013-04-12 05:52:00,
2013-04-11 23:02:00,53.0,44.0,-100.00,West,277,0.0,4.0,72,0.00,,,0.00,0.000000,,2013-04-12 06:02:00,
2013-04-11 23:12:00,53.0,44.0,-100.00,West,277,0.0,4.0,72,0.00,,,0.00,0.000000,,2013-04-12 06:12:00,
2013-04-11 23:22:00,53.0,44.0,-100.00,West,277,0.0,4.0,72,0.00,,,0.00,0.000000,,2013-04-12 06:22:00,
2013-04-11 23:32:00,53.0,44.0,-100.00,West,277,0.0,4.0,72,0.00,,,0.00,0.000000,,2013-04-12 06:32:00,
2013-04-11 23:52:00,50.0,43.0,-100.00,SSW,206,0.0,3.0,78,0.00,,,0.00,0.000000,,2013-04-12 06:52:00,